Theta_e
314 311 313 314 310 310 311 311 311 309 311 310 309 309 310 310 311 312 313 313 313 313 313 312 312 311 310 309 308 306 304 303 303 303 304 304 304 304 303 302 302 301 300 300
312 313 312 310 310 311 311 311 310 310 310 311 309 310 312 309 309 310 310 311 312 313 312 312 312 312 311 310 308 307 304 303 303 303 303 303 303 303 302 302 301 300 300 300
314 314 309 310 311 311 310 311 311 312 310 309 309 309 309 311 311 311 312 312 312 313 313 312 312 312 312 311 309 307 304 302 302 302 302 302 303 302 302 301 301 300 300 300
313 311 310 310 311 309 312 310 311 311 310 313 310 314 310 311 310 310 310 312 312 312 312 312 312 312 312 312 310 307 305 302 302 301 301 302 302 302 302 301 300 299 299 299
314 310 310 311 312 310 312 309 309 310 310 311 311 311 310 310 311 310 308 310 312 312 312 312 313 313 312 311 311 307 305 303 301 301 301 300 301 301 300 300 299 298 298 298
311 310 310 311 310 309 308 311 311 309 309 313 313 311 312 312 311 310 310 311 311 312 312 312 312 312 312 311 309 307 305 303 301 300 300 299 299 299 299 298 298 297 297 297
315 313 310 309 311 309 311 312 315 316 316 318 311 310 312 311 309 309 309 310 311 311 311 312 312 312 311 311 309 306 305 303 301 300 299 298 298 297 297 296 296 296 295 295
314 316 311 308 310 312 311 311 315 321 319 317 310 314 314 307 306 308 310 310 310 311 311 311 311 311 311 310 308 306 305 304 302 300 298 297 297 296 295 294 294 294 294 293
314 316 308 307 308 310 311 312 310 314 312 313 312 311 310 308 307 307 307 308 309 309 309 309 310 310 309 308 306 305 304 302 301 299 298 297 295 295 294 293 293 292 292 292
314 315 310 306 307 306 309 308 312 311 321 322 315 314 314 310 309 306 303 302 301 303 304 304 306 306 306 305 304 302 301 300 299 298 297 296 295 294 294 293 292 291 293 290
311 312 312 308 309 312 306 308 309 312 319 320 319 316 312 310 308 305 299 296 295 297 299 299 299 299 300 301 301 300 299 298 297 296 295 294 293 293 292 292 294 294 290 290
309 309 311 312 310 308 308 309 309 316 317 315 317 318 309 303 303 304 298 294 295 296 296 296 296 296 296 296 296 296 296 295 294 293 292 292 291 291 294 293 293 292 290 290
309 310 312 314 312 312 310 309 309 314 314 318 320 318 307 303 301 299 297 296 294 295 296 296 297 297 296 296 295 293 292 292 292 291 290 289 289 290 291 291 289 289 290 289
310 309 313 318 316 316 317 316 315 316 317 318 317 316 309 307 303 298 296 294 293 292 291 291 291 291 291 292 292 293 293 293 292 291 291 291 291 291 289 289 288 288 288 288
309 310 308 309 309 311 312 312 313 316 316 318 317 317 317 303 299 297 295 293 292 290 289 289 289 289 290 290 290 290 290 290 290 290 289 289 289 288 287 287 287 287 286 286
310 314 311 316 314 314 314 314 314 313 314 316 316 317 298 295 294 292 291 291 289 288 288 288 288 287 288 288 288 288 288 288 288 288 288 287 287 287 286 286 286 285 285 285
310 311 312 316 314 315 317 315 315 314 306 308 313 303 295 292 291 290 289 288 287 286 286 286 286 286 285 285 285 285 286 286 286 286 286 285 285 285 285 285 285 285 284 284
314 312 313 316 315 317 308 297 299 304 297 295 294 293 292 291 289 288 287 286 285 285 285 284 284 284 284 284 284 284 284 284 284 284 284 284 283 283 283 283 283 283 283 282
312 314 314 315 316 314 306 300 300 301 295 291 291 291 290 288 286 285 285 284 284 283 283 282 282 282 281 281 282 282 282 281 281 281 281 281 281 281 281 281 281 281 281 281
309 312 314 314 316 316 299 292 291 294 301 290 290 288 287 288 289 285 283 282 282 282 281 280 280 280 280 280 279 280 280 280 280 280 279 279 279 279 279 279 279 279 279 279
310 312 314 315 316 309 290 288 290 302 294 286 285 284 284 285 283 282 282 281 280 279 279 279 279 279 279 278 278 278 278 278 278 278 278 278 278 278 278 278 278 278 278 278
310 312 312 314 315 314 285 289 294 286 283 283 282 282 282 282 281 281 281 280 279 279 279 278 278 278 278 277 277 277 277 277 276 276 276 277 277 277 277 276 277 277 276 276
311 301 306 296 293 284 282 282 283 284 282 281 281 281 281 280 280 279 278 278 278 277 277 277 276 276 276 276 275 275 275 275 275 275 275 275 275 275 275 275 275 275 276 275
292 288 292 290 283 282 281 281 282 282 281 280 280 279 279 278 278 278 277 277 276 276 276 275 275 275 274 274 273 273 273 273 273 273 273 273 274 274 273 274 274 274 274 274
283 285 287 284 282 280 280 280 280 280 279 278 278 278 277 277 277 276 276 276 275 274 274 274 273 273 273 273 273 273 272 272 271 272 272 272 272 272 272 272 273 273 273 273
280 280 284 285 280 281 279 279 279 279 278 277 277 277 276 276 276 275 275 274 274 274 273 273 273 273 272 272 272 272 272 271 271 271 271 271 270 271 271 271 271 272 272 273
Wind_Speed
3 4 4 5 4 3 2 3 5 5 3 3 6 13 23 10 22 22 26 26 29 29 23 22 20 18 18 18 17 13 10 8 8 7 6 6 4 3 2 1 0 2 2 3
4 4 3 3 2 2 3 3 6 6 3 2 6 14 23 7 6 15 26 28 30 30 26 26 24 22 20 18 17 15 13 11 9 8 7 7 6 5 4 3 2 3 3 4
5 2 5 3 2 3 4 5 4 6 5 5 4 7 6 3 4 4 9 17 22 27 28 28 28 25 21 19 18 16 14 12 11 10 10 10 9 7 6 5 5 5 5 5
5 2 4 3 4 6 4 4 2 3 4 3 4 5 8 3 6 4 6 9 17 22 21 26 27 26 22 18 17 17 16 14 13 12 12 11 10 8 8 8 7 6 6 6
5 6 5 5 5 7 6 2 2 2 3 3 2 1 8 3 5 7 7 10 12 18 18 20 24 24 21 18 16 17 17 16 15 13 13 12 11 10 10 10 9 8 8 8
6 1 4 6 2 2 1 2 4 4 3 1 4 5 5 4 6 3 1 10 12 13 14 15 17 20 20 18 17 18 18 17 15 14 13 12 12 11 12 12 11 10 10 10
2 4 1 2 2 2 2 4 4 4 2 6 1 3 9 5 7 5 4 2 12 10 9 10 13 17 18 17 16 17 17 15 14 14 14 13 13 13 13 12 12 12 12 12
4 6 7 5 5 5 5 6 4 5 4 7 3 7 5 3 6 10 7 6 9 7 5 5 5 7 10 10 12 13 13 13 14 14 14 15 15 14 14 14 14 14 14 14
5 6 2 2 2 4 3 4 3 1 0 2 4 6 3 3 6 13 13 9 9 6 5 5 7 8 8 6 6 7 9 11 12 13 15 15 16 15 14 15 15 14 14 14
3 5 4 3 1 2 4 3 3 1 4 5 5 5 5 4 6 6 11 15 18 15 14 12 9 8 8 8 7 6 6 7 9 11 13 14 15 15 15 15 14 14 17 15
4 4 2 3 7 9 1 3 4 2 4 4 3 5 6 5 6 6 11 15 15 19 18 13 13 11 8 5 6 6 6 6 8 10 11 12 13 14 14 16 21 18 17 17
4 4 5 11 3 2 3 7 7 4 5 4 2 7 3 6 5 9 13 13 14 14 14 10 9 7 5 4 1 3 6 7 8 9 11 13 14 16 19 20 20 18 18 17
4 3 4 9 2 2 4 5 5 4 3 8 6 5 5 7 7 9 12 10 11 10 8 8 6 5 3 2 1 3 5 6 8 10 12 14 16 18 23 16 15 17 16 17
5 4 7 14 9 2 4 4 4 7 5 8 13 13 8 8 5 9 11 11 12 11 10 11 10 8 7 6 4 2 3 5 8 12 16 19 18 15 14 13 15 17 14 14
4 6 4 8 10 10 18 18 16 17 21 14 24 18 10 6 7 9 11 10 11 11 11 10 11 10 9 8 7 6 6 6 7 8 10 11 11 13 17 16 14 16 17 19
3 4 6 17 16 17 21 21 20 21 24 23 23 21 9 13 13 13 11 11 10 8 6 6 6 7 8 8 9 9 10 10 10 11 11 12 12 12 13 15 15 16 18 21
7 5 4 16 6 9 15 18 23 20 2 6 12 0 9 8 10 9 8 7 7 6 6 8 9 9 10 11 11 12 12 12 12 12 12 13 13 14 15 17 18 21 23 24
14 8 4 9 4 10 2 5 3 3 6 7 10 8 4 11 14 12 8 6 6 5 6 7 9 11 12 12 12 13 13 13 14 14 14 15 16 16 18 20 20 21 22 23
21 16 7 5 9 8 4 3 3 3 3 0 7 6 6 18 16 11 6 4 4 4 6 8 10 12 12 12 13 14 13 13 14 14 15 16 17 18 20 21 21 22 23 24
11 17 10 7 8 10 2 3 4 1 3 4 6 6 5 6 4 3 2 5 6 6 8 10 12 12 13 13 14 15 15 15 15 16 17 18 19 21 23 23 23 23 23 24
3 3 15 14 11 2 2 4 6 5 2 11 11 9 5 2 2 2 3 5 7 9 9 11 12 12 12 15 16 16 16 17 19 20 22 23 22 23 24 25 24 24 24 25
9 6 7 7 12 15 4 4 0 3 11 12 10 7 5 3 1 3 5 9 10 12 13 13 15 14 15 17 18 18 19 21 23 24 25 25 25 26 26 27 27 26 26 26
3 3 2 2 2 4 14 17 12 8 9 6 6 3 1 1 2 4 7 10 12 14 14 15 16 18 19 19 18 22 24 24 25 25 26 26 26 26 26 26 26 26 26 26
3 7 1 3 2 6 15 15 13 11 9 5 3 2 5 5 6 8 10 12 15 17 19 18 19 23 24 22 23 23 24 24 25 26 26 26 26 26 25 26 26 26 26 26
4 7 3 3 7 11 11 10 6 8 7 5 3 5 7 9 9 11 14 15 18 20 19 20 25 26 26 26 25 23 24 24 26 26 27 29 29 28 27 27 26 25 25 24
8 4 3 1 4 5 7 5 5 8 8 7 7 8 9 12 14 16 17 19 20 20 22 25 25 26 27 27 26 25 24 25 26 28 29 28 27 28 27 28 30 25 23 22
Wind_Direction
21 48 231 230 194 165 165 221 257 247 256 250 231 273 281 265 235 233 232 232 229 229 232 226 227 231 231 231 230 227 223 219 218 224 227 220 217 215 223 225 335 0 12 16
18 237 209 131 154 177 194 262 257 285 185 5 291 283 285 267 228 230 234 238 233 225 223 219 222 226 231 235 231 228 221 220 216 224 236 235 230 232 239 247 280 306 323 332
182 239 146 181 204 224 227 208 231 233 331 265 303 279 304 283 267 241 236 238 237 225 222 219 220 226 227 231 233 230 223 221 221 222 230 235 238 241 245 253 262 275 292 305
230 174 180 202 242 160 278 189 217 278 22 253 24 283 301 303 277 280 239 222 224 220 226 227 224 225 228 232 231 228 225 222 224 226 231 237 242 248 250 255 263 269 275 286
256 177 196 217 221 163 231 156 254 205 197 6 259 133 271 292 270 249 239 212 221 218 225 231 229 228 228 227 234 229 227 224 226 229 234 238 245 248 253 258 261 262 267 272
248 239 191 210 184 192 74 335 53 55 89 333 233 164 275 220 224 200 186 220 205 200 216 230 231 228 223 225 230 227 229 229 230 234 238 240 244 250 255 260 261 262 266 269
298 230 197 173 167 47 101 60 320 333 350 234 160 183 242 309 309 195 174 87 178 184 198 217 220 220 218 229 232 230 233 237 238 241 244 246 247 249 251 257 263 265 268 268
200 310 182 175 205 188 187 160 170 271 248 272 322 246 256 334 39 86 80 91 147 160 189 205 202 215 227 235 236 238 243 248 248 249 250 249 249 250 252 255 259 263 267 267
181 264 136 182 156 143 174 184 183 211 207 321 232 288 287 97 54 48 38 53 60 87 137 158 180 192 208 220 232 246 255 258 257 255 254 253 252 253 253 254 258 261 265 269
225 289 203 152 133 43 165 160 73 4 271 250 266 272 234 171 91 45 39 53 102 108 109 113 127 158 185 195 202 218 240 257 264 267 266 264 262 258 256 257 259 262 271 268
174 170 261 123 201 189 120 226 221 194 169 233 287 256 319 118 100 91 81 80 90 101 101 103 98 98 107 143 186 212 228 256 278 280 274 270 266 262 258 260 262 268 257 261
214 180 237 223 227 222 185 208 178 191 228 228 234 259 86 83 75 107 109 104 103 103 105 103 88 84 95 95 145 256 258 254 253 255 261 266 269 270 274 271 265 254 252 258
193 230 317 317 10 353 212 200 184 117 77 227 245 257 162 130 110 105 105 101 99 101 99 88 78 51 46 67 211 242 256 261 256 254 258 262 266 274 280 263 259 263 270 268
168 216 205 249 250 126 203 216 225 213 218 260 232 261 205 197 160 99 91 89 83 72 58 51 56 45 43 34 24 353 295 279 268 265 265 267 269 262 263 267 276 277 275 282
194 252 223 263 280 280 275 264 256 238 242 240 266 254 294 131 107 100 104 92 81 72 57 49 38 19 16 9 4 356 342 329 318 309 302 295 288 275 269 276 279 280 284 288
169 253 206 259 258 255 262 261 253 249 250 244 253 263 117 106 102 85 82 87 78 65 54 35 31 4 351 347 346 338 332 327 323 317 311 306 298 288 282 286 287 288 286 284
185 199 204 266 228 264 261 257 248 247 263 251 246 298 136 113 104 99 96 87 74 51 27 8 359 350 334 341 338 334 333 328 320 313 307 303 300 297 295 289 285 283 285 284
243 223 229 263 258 247 268 31 329 106 95 109 101 102 81 127 116 106 90 71 60 22 0 344 338 334 331 330 326 324 321 319 315 310 306 301 297 291 285 282 284 284 284 284
221 228 239 238 233 272 225 197 155 188 172 56 136 127 105 136 116 82 82 54 22 357 334 328 322 328 325 322 320 318 319 318 315 312 308 304 302 298 294 293 292 289 287 285
206 222 224 218 237 251 63 97 16 313 222 139 116 84 91 183 216 108 30 355 346 332 323 315 315 318 311 317 321 317 316 315 315 312 308 307 306 299 296 295 295 294 291 289
155 198 226 239 250 205 43 351 306 191 142 117 121 115 93 104 81 136 316 320 325 322 316 313 315 312 317 318 317 316 312 312 311 307 304 303 302 299 297 297 295 292 289 287
214 216 220 234 242 247 323 124 6 84 89 120 110 110 118 143 189 315 313 316 318 321 317 318 314 311 320 319 315 311 309 307 304 301 298 297 296 295 296 296 295 291 289 288
291 359 310 8 62 76 50 91 98 124 121 81 88 88 182 205 290 310 315 318 320 319 316 316 310 316 321 317 313 310 310 307 304 301 299 297 295 293 294 294 293 293 291 290
91 15 92 166 101 90 89 85 89 92 97 89 63 312 314 320 307 326 326 323 320 320 319 318 320 320 318 317 313 310 309 307 304 303 301 300 300 301 298 293 292 291 289 288
344 340 53 65 95 95 80 91 98 82 60 50 15 342 332 320 331 325 324 319 318 320 318 320 320 316 314 313 312 311 309 308 304 302 302 302 303 301 300 296 296 294 290 290
355 360 333 79 54 83 117 113 59 39 27 8 339 324 327 327 322 317 317 316 319 320 319 317 313 311 311 312 311 312 311 307 303 302 304 303 302 302 302 302 300 293 291 286